Le nostre stazioni meteo in Italia

Pubblicità
Il mio iltempo24.it
Dalwhinnie, Gran Bretagna (99005): Temperatura & dewpoint: 02.12.2019 13:00:00 - 08.12.2019 13:00:00 (GMT)Dalwhinnie, Gran Bretagna (99005): precipitazioni: 02.12.2019 13:00:00 - 08.12.2019 13:00:00 (GMT)
Data & Tempo tt [°C] td [°C] rr [mm]
08.12.2019 13:00:00 - - -
08.12.2019 12:00:00 2,7 1,1 0,6
08.12.2019 11:00:00 3,5 1,1 0,2
08.12.2019 10:00:00 2,5 0,9 1,8
08.12.2019 09:00:00 3,1 1,2 1,0
08.12.2019 08:00:00 3,3 0,9 1,0
08.12.2019 07:00:00 2,3 0,1 1,4
08.12.2019 06:00:00 4,3 0,7 0,6
08.12.2019 05:00:00 4,1 1,5 0,6
08.12.2019 04:00:00 4,6 1,4 0,8
08.12.2019 03:00:00 5,4 2,6 1,4
08.12.2019 02:00:00 6,6 2,8 0,6
08.12.2019 01:00:00 7,2 4,4 1,0
08.12.2019 00:00:00 9,2 7,5 1,2
07.12.2019 23:00:00 8,8 7,6 1,4
07.12.2019 22:00:00 9,1 7,8 3,0
07.12.2019 21:00:00 8,6 7,1 2,6
07.12.2019 20:00:00 8,9 7,5 2,0
07.12.2019 19:00:00 8,9 7,6 1,8
07.12.2019 18:00:00 9,0 7,5 0,6
07.12.2019 17:00:00 9,1 7,3 0,4
07.12.2019 16:00:00 7,6 6,6 2,6
07.12.2019 15:00:00 7,0 6,1 3,8
07.12.2019 14:00:00 7,1 5,8 2,4
07.12.2019 13:00:00 6,7 5,9 0,0
07.12.2019 12:00:00 6,0 5,2 0,2
07.12.2019 11:00:00 5,9 4,9 0,0
07.12.2019 10:00:00 5,8 4,3 0,0
07.12.2019 09:00:00 4,6 3,1 0,0
07.12.2019 08:00:00 5,1 3,7 0,0
07.12.2019 07:00:00 4,9 3,0 0,0
07.12.2019 06:00:00 4,9 3,2 0,0
07.12.2019 05:00:00 5,1 3,0 0,0
07.12.2019 04:00:00 4,9 2,4 0,0
07.12.2019 03:00:00 4,8 3,1 0,0
07.12.2019 02:00:00 4,4 2,0 0,0
07.12.2019 01:00:00 5,1 2,1 0,0
07.12.2019 00:00:00 5,1 2,2 0,0
06.12.2019 23:00:00 5,7 2,7 0,0
06.12.2019 22:00:00 5,4 3,8 0,0
06.12.2019 21:00:00 6,0 3,3 0,0
06.12.2019 20:00:00 6,2 3,5 0,0
06.12.2019 19:00:00 6,8 3,4 0,0
06.12.2019 18:00:00 7,2 3,8 0,0
06.12.2019 17:00:00 6,7 4,2 0,0
06.12.2019 16:00:00 6,6 4,0 0,0
06.12.2019 15:00:00 7,1 3,9 0,0
06.12.2019 14:00:00 7,1 4,8 0,0
06.12.2019 13:00:00 7,1 4,5 0,0
06.12.2019 12:00:00 7,0 4,3 0,0
06.12.2019 11:00:00 7,5 3,8 0,0
06.12.2019 10:00:00 7,3 4,9 0,0
06.12.2019 09:00:00 7,7 5,2 0,2
06.12.2019 08:00:00 8,8 6,4 0,8
06.12.2019 07:00:00 8,0 7,1 3,2
06.12.2019 06:00:00 8,6 6,1 2,2
06.12.2019 05:00:00 8,4 6,9 0,8
06.12.2019 04:00:00 8,5 6,7 0,2
06.12.2019 03:00:00 9,1 6,7 0,0
06.12.2019 02:00:00 8,8 6,5 0,0
06.12.2019 01:00:00 9,2 6,6 0,0
06.12.2019 00:00:00 9,4 7,0 0,0
05.12.2019 23:00:00 9,9 7,0 0,0
05.12.2019 22:00:00 10,1 7,0 0,0
05.12.2019 21:00:00 9,8 7,5 0,2
05.12.2019 20:00:00 10,0 7,9 0,2
05.12.2019 19:00:00 10,4 8,0 2,2
05.12.2019 18:00:00 9,5 8,1 2,6
05.12.2019 17:00:00 8,8 7,6 2,8
05.12.2019 16:00:00 8,4 7,0 1,2
05.12.2019 15:00:00 7,1 5,4 0,8
05.12.2019 14:00:00 6,7 4,7 0,8
05.12.2019 13:00:00 6,2 4,3 0,8
05.12.2019 12:00:00 5,8 3,9 0,2
05.12.2019 11:00:00 5,6 3,9 0,6
05.12.2019 10:00:00 5,6 3,8 0,2
05.12.2019 09:00:00 6,1 3,6 0,0
05.12.2019 08:00:00 6,2 3,0 0,0
05.12.2019 07:00:00 5,7 3,0 0,0
05.12.2019 06:00:00 5,7 2,4 0,0
05.12.2019 05:00:00 5,3 2,2 0,0
05.12.2019 04:00:00 4,9 1,8 0,2
05.12.2019 03:00:00 4,8 1,9 0,0
05.12.2019 02:00:00 4,5 0,9 0,0
05.12.2019 01:00:00 4,2 1,4 0,2
05.12.2019 00:00:00 4,4 1,0 0,0
04.12.2019 23:00:00 4,4 1,1 0,0
04.12.2019 22:00:00 4,0 0,6 0,0
04.12.2019 21:00:00 4,1 1,2 0,2
04.12.2019 20:00:00 3,6 0,1 0,0
04.12.2019 19:00:00 4,0 1,0 0,6
04.12.2019 18:00:00 4,3 1,4 0,4
04.12.2019 17:00:00 4,0 1,1 1,0
04.12.2019 16:00:00 4,8 1,3 0,2
04.12.2019 15:00:00 5,6 0,6 0,0
04.12.2019 14:00:00 6,0 2,1 0,0
04.12.2019 13:00:00 5,8 3,3 1,4
04.12.2019 12:00:00 6,5 4,6 0,4
04.12.2019 11:00:00 6,0 4,5 0,0
04.12.2019 10:00:00 5,7 4,2 0,2
04.12.2019 09:00:00 5,3 3,7 0,2
04.12.2019 08:00:00 5,0 3,8 0,2
04.12.2019 07:00:00 4,9 3,4 0,0
04.12.2019 06:00:00 5,6 2,7 0,0
04.12.2019 05:00:00 5,9 2,5 0,0
04.12.2019 04:00:00 5,6 2,4 0,0
04.12.2019 03:00:00 5,7 2,4 0,0
04.12.2019 02:00:00 5,3 2,3 0,0
04.12.2019 01:00:00 4,9 2,0 0,0
04.12.2019 00:00:00 4,4 1,9 0,0
03.12.2019 23:00:00 4,5 1,3 0,0
03.12.2019 22:00:00 3,9 0,8 0,0
03.12.2019 21:00:00 3,8 -0,2 0,0
03.12.2019 20:00:00 3,8 -0,4 0,0
03.12.2019 19:00:00 4,1 -0,2 0,0
03.12.2019 18:00:00 4,0 0,4 0,0
03.12.2019 17:00:00 3,8 1,2 0,0
03.12.2019 16:00:00 4,2 1,4 0,0
03.12.2019 15:00:00 5,5 1,5 0,0
03.12.2019 14:00:00 5,9 1,7 0,0
03.12.2019 13:00:00 6,4 2,2 0,0
03.12.2019 12:00:00 6,8 2,7 0,0
03.12.2019 11:00:00 6,7 2,8 0,0
03.12.2019 10:00:00 6,2 3,1 0,0
03.12.2019 09:00:00 4,7 1,8 0,0
03.12.2019 08:00:00 4,6 2,0 0,0
03.12.2019 07:00:00 5,3 2,2 0,0
03.12.2019 06:00:00 5,7 2,8 0,0
03.12.2019 05:00:00 6,0 2,7 0,0
03.12.2019 04:00:00 5,7 2,5 0,0
03.12.2019 03:00:00 5,8 2,4 0,0
03.12.2019 02:00:00 6,5 3,0 0,0
03.12.2019 01:00:00 6,6 3,5 0,0
03.12.2019 00:00:00 6,7 3,5 0,0
02.12.2019 23:00:00 7,5 4,0 0,0
02.12.2019 22:00:00 7,4 4,7 0,0
02.12.2019 21:00:00 7,5 4,7 0,0
02.12.2019 20:00:00 7,8 4,5 0,0
02.12.2019 19:00:00 7,6 4,6 0,0
02.12.2019 18:00:00 7,2 4,7 0,2
02.12.2019 17:00:00 7,4 4,4 0,0
02.12.2019 16:00:00 6,9 4,1 0,0
02.12.2019 15:00:00 6,8 4,3 0,4
02.12.2019 14:00:00 5,3 3,7 0,2
02.12.2019 13:00:00 5,4 2,9 0,0

tt = Temperatura
td = dewpoint
rr = precipitazioni

Stazioni seguenti

WeatherPro
AMSI
MeteoEarth